Powrót do katalogu

TITAN 3C TRANSTAGE DEB

LostHEO
NORAD 5986·DEBRIS·🇺🇸 United States

Wystrzelony Dec 21, 1965 z Cape Canaveral Space Force Station

Loading…

Następne Przeloty (najbliższe 24 godziny)

TLE

NieaktualneSource: Space-Track

Epoka: Jun 27, 2026, 17:58 UTC

1 05986U 65108Q   26178.74882961  .00003289  00000-0  36705-2 0  9992
2 05986  26.8640  13.0493 6157697 251.8342  35.1885  3.71299526297329

Śledź TITAN 3C TRANSTAGE DEB w czasie rzeczywistym z AllMySat

Download on the App Store